Weather in Peretorgi

Russia / Bryansk Oblast     52°58′32″N   34°00′42″E
temp.,
°C
wind,
m/s
gust,
m/s
humid.,
%
clouds,
%
prec.,
mm/h
press.,
hPa
HPBL,
m
10 may, mon
mon1000:00+3nw37742 0.0 1024116
03:00+2nnw34760 0.0 102663
06:00+3nnw34795 0.0 102782
09:00+9n35590 0.0 1027429
12:00+13n56430 0.0 10271557
15:00+15nne57415 0.0 10261987
18:00+14nne47540 0.0 1024824
21:00+8ne36744 0.0 102576
11 may, tue
tue1100:00+6nne310755 0.0 1025179
03:00+5n410800 0.0 1025188
06:00+6nne512815 0.0 1025279
09:00+12nne610683 0.0 1023464
12:00+17ne69585 0.0 1022867
15:00+20ne685794 0.0 10211410
18:00+17e6117669 0.4 1022890
21:00+10e4109037 0.5 1024405
12 may, wed
wed1200:00+7e310960 0.0 1025227
03:00+6se410924 0.0 1025438
06:00+5ene26929 0.0 1025152
09:00+11ene4571100 0.0 1025578
12:00+12ne4462100 0.1 10221230
15:00+9n2492100 7.5 1019379
18:00+8ssw4697100 11.5 1015371
21:00+7se4995100 14.9 1016468
13 may, thu
thu1300:00+7ese5129568 0.0 1016498
03:00+6ese411968 0.0 1015335
06:00+7ese51196100 1.6 1015561
09:00+9sse5986100 2.1 1016785
12:00+13sse5765100 0.0 10151162
15:00+16sse575498 0.0 10151720
18:00+16sse466461 0.0 1014641
21:00+10se2281100 0.0 101516
14 may, fri
fri1400:00+9ese349051 0.0 101558
03:00+9ese3695100 0.0 1014114
06:00+10ese3109576 0.0 1014228
09:00+15se41186100 0.3 1013567
12:00+19ese5872100 0.6 1012836
15:00+21sse577139 2.5 10111192
18:00+19s4680100 1.3 1010715
21:00+15s3393100 2.1 101046